Weather History for Lawton, OK

Change the Weather History Date:

Sunday, March 10, 2013

  Actual Average Record
Temperature  
Mean Temperature 44 °F -  
Max Temperature 57 °F 64 °F 92 °F (1955)
Min Temperature 30 °F 38 °F 17 °F (1998)
Degree Days  
Heating Degree Days 22    
Moisture  
Dew Point 29 °F    
Average Humidity 60    
Maximum Humidity 85    
Minimum Humidity 37    
Precipitation  
Precipitation 0.00 in - - ()
Sea Level Pressure  
Sea Level Pressure 29.95 in    
Wind  
Wind Speed 12 mph (NW)    
Max Wind Speed 23 mph    
Max Gust Speed 34 mph    
Visibility 10 miles    
Events      
Averages and records for this station are not official NWS values.
T = Trace of Precipitation, MM = Missing Value Source: NWS Daily Summary

Daily Weather History Graph

Daily Weather History Graph

Search for Another Location

Airport:

Trip Planner

Search our weather history database for the weather conditions in past years. The results will help you decide how hot, cold, wet, or windy it might be!

Date:

Astronomy

Mar. 10, 2013 Rise Set
Actual Time 7:50 AM CDT 7:37 PM CDT
Civil Twilight 7:25 AM CDT 8:02 PM CDT
Nautical Twilight 6:56 AM CDT 8:31 PM CDT
Astronomical Twilight 6:27 AM CDT 9:01 PM CDT
Moon 6:49 AM CDT (3/10) 6:47 PM CDT (3/10)
Length of Visible Light 12h 37m
Length of Day
11h 46m
Waning Crescent, 2% of the Moon is Illuminated
Mar 10
Waning Crescent
Mar 11
New
Mar 19
First Quarter
Mar 27
Full
Apr 2
Last Quarter

Hourly Weather History & Observations

Time (CDT) Temp. Windchill Dew Point Humidity Pressure Visibility Wind Dir Wind Speed Gust Speed Precip Events Conditions
12:53 AM 57.9 °F - 32.0 °F 37% 29.73 in 10.0 mi SSW 8.1 mph - N/A   Partly Cloudy
1:53 AM 52.0 °F - 37.9 °F 59% 29.73 in 10.0 mi West 16.1 mph 24.2 mph N/A   Scattered Clouds
4:53 AM 46.9 °F - 36.0 °F 66% 29.73 in 10.0 mi WNW 9.2 mph - N/A   Clear
5:53 AM 45.0 °F 40.6 °F 35.1 °F 68% 29.76 in 10.0 mi West 8.1 mph - N/A   Clear
7:53 AM 43.0 °F 35.4 °F 34.0 °F 71% 29.82 in 10.0 mi NW 16.1 mph 28.8 mph N/A   Overcast
8:53 AM 41.0 °F 33.5 °F 32.0 °F 70% 29.87 in 10.0 mi NNW 13.8 mph 26.5 mph N/A   Overcast
9:53 AM 41.0 °F 31.1 °F 30.0 °F 65% 29.89 in 10.0 mi NNW 23.0 mph 34.5 mph N/A   Overcast
10:04 AM 42.8 °F 33.8 °F 30.2 °F 61% 29.91 in 10.0 mi NNW 21.9 mph 31.1 mph N/A   Overcast
10:48 AM 41.0 °F 33.1 °F 30.2 °F 65% 29.94 in 10.0 mi NNW 15.0 mph 25.3 mph N/A   Overcast
10:53 AM 41.0 °F 33.5 °F 30.0 °F 65% 29.95 in 10.0 mi NNW 13.8 mph 24.2 mph N/A   Overcast
11:20 AM 42.8 °F 35.1 °F 30.2 °F 61% 29.95 in 10.0 mi NNW 16.1 mph 26.5 mph N/A   Overcast
11:53 AM 42.1 °F 33.6 °F 30.0 °F 62% 29.97 in 10.0 mi NW 18.4 mph 25.3 mph N/A   Overcast
12:53 PM 41.0 °F 33.5 °F 28.0 °F 60% 30.00 in 10.0 mi NW 13.8 mph 28.8 mph N/A   Overcast
1:53 PM 43.0 °F 35.1 °F 27.0 °F 53% 30.00 in 10.0 mi NW 17.3 mph 27.6 mph N/A   Overcast
2:53 PM 44.1 °F 37.4 °F 27.0 °F 51% 30.01 in 10.0 mi NNW 13.8 mph 23.0 mph N/A   Overcast
3:53 PM 46.0 °F 39.0 °F 26.1 °F 46% 30.00 in 10.0 mi NNW 17.3 mph 27.6 mph N/A   Overcast
4:53 PM 48.0 °F - 26.1 °F 42% 30.00 in 10.0 mi NW 13.8 mph 26.5 mph N/A   Overcast
5:53 PM 48.0 °F - 27.0 °F 44% 30.01 in 10.0 mi NNW 13.8 mph 24.2 mph N/A   Overcast
6:53 PM 46.0 °F 40.6 °F 26.1 °F 46% 30.02 in 10.0 mi NNW 11.5 mph 18.4 mph N/A   Mostly Cloudy
7:53 PM 44.1 °F 39.0 °F 27.0 °F 51% 30.05 in 10.0 mi NNW 9.2 mph - N/A   Overcast
8:53 PM 41.0 °F 35.8 °F 27.0 °F 57% 30.08 in 10.0 mi North 8.1 mph - N/A   Clear
9:53 PM 39.0 °F 36.8 °F 27.0 °F 62% 30.10 in 10.0 mi NNW 3.5 mph - N/A   Mostly Cloudy
10:53 PM 34.0 °F 31.0 °F 28.0 °F 79% 30.12 in 10.0 mi WNW 3.5 mph - N/A   Clear
11:53 PM 30.9 °F - 27.0 °F 85% 30.12 in 10.0 mi Calm Calm - N/A   Clear
12:53 AM 34.0 °F 28.8 °F 26.1 °F 73% 30.11 in 10.0 mi NW 5.8 mph - N/A   Clear